Ainsworth, NE

4:46 AM CDT on July 24, 2017 (GMT -0500)
Ainsworth Municipal

Weather History for KANW - January, 2013

Change the Weather History Date:

Wednesday, January 16, 2013

  Actual Average Record
Temperature  
Mean Temperature 38 °F -  
Max Temperature 47 °F 33 °F 50 °F (2004)
Min Temperature 29 °F 13 °F -9 °F (2005)
Degree Days  
Heating Degree Days 27    
Moisture  
Dew Point 27 °F    
Average Humidity 67    
Maximum Humidity 92    
Minimum Humidity 40    
Precipitation  
Precipitation 0.00 in - - ()
Sea Level Pressure  
Sea Level Pressure 30.02 in    
Wind  
Wind Speed 14 mph (WNW)    
Max Wind Speed 31 mph    
Max Gust Speed 38 mph    
Visibility 10 miles    
Events Snow    
Averages and records for this station are not official NWS values.
T = Trace of Precipitation, MM = Missing Value Source: NWS Daily Summary

Daily Weather History Graph

Daily Weather History Graph

Search for Another Location

Airport or City:

Trip Planner

Search our weather history database for the weather conditions in past years. The results will help you decide how hot, cold, wet, or windy it might be!

Date:

Astronomy

Jan. 16, 2013 Rise Set
Actual Time 8:06 AM CST 5:33 PM CST
Civil Twilight 7:35 AM CST 6:04 PM CST
Nautical Twilight 7:00 AM CST 6:39 PM CST
Astronomical Twilight 6:27 AM CST 7:13 PM CST
Moon 10:35 AM CST (1/16) 11:35 PM CST (1/16)
Length of Visible Light 10h 29m
Length of Day
9h 27m
Waxing Crescent, 28% of the Moon is Illuminated
Jan 16
Waxing Crescent
Jan 18
First Quarter
Jan 26
Full
Feb 3
Last Quarter
Feb 10
New

Hourly Weather History & Observations

Time (CST) Temp. Windchill Dew Point Humidity Pressure Visibility Wind Dir Wind Speed Gust Speed Precip Events Conditions
12:15 AM 33.1 °F 25.5 °F 31.1 °F 92% 29.89 in 10.0 mi West 9.2 mph - N/A Snow Light Snow
12:35 AM 33.8 °F 23.5 °F 31.1 °F 90% 29.88 in 10.0 mi West 16.1 mph - N/A   Overcast
12:55 AM 34.0 °F 25.5 °F 30.7 °F 88% 29.88 in 10.0 mi West 11.5 mph - N/A   Overcast
1:15 AM 34.9 °F 25.7 °F 30.2 °F 83% 29.88 in 10.0 mi West 13.8 mph - N/A   Overcast
1:35 AM 35.6 °F 25.9 °F 29.8 °F 80% 29.87 in 10.0 mi West 16.1 mph 20.7 mph N/A   Overcast
1:55 AM 36.3 °F 26.1 °F 30.0 °F 78% 29.88 in 10.0 mi West 18.4 mph 25.3 mph N/A   Overcast
2:35 AM 37.0 °F 27.7 °F 29.7 °F 75% 29.88 in 10.0 mi West 16.1 mph - N/A   Overcast
2:55 AM 37.0 °F 28.5 °F 29.7 °F 75% 29.88 in 10.0 mi West 13.8 mph - N/A   Overcast
3:15 AM 36.9 °F 27.8 °F 30.0 °F 76% 29.89 in 10.0 mi West 15.0 mph - N/A   Overcast
3:35 AM 37.6 °F 29.1 °F 29.8 °F 74% 29.89 in 10.0 mi West 13.8 mph 20.7 mph N/A   Overcast
3:55 AM 37.6 °F 28.4 °F 29.7 °F 73% 29.89 in 10.0 mi West 16.1 mph 19.6 mph N/A   Overcast
4:15 AM 37.4 °F 27.8 °F 28.4 °F 70% 29.89 in 10.0 mi WNW 17.3 mph 21.9 mph N/A   Mostly Cloudy
4:35 AM 36.7 °F 26.6 °F 28.4 °F 72% 29.89 in 10.0 mi WNW 18.4 mph - N/A   Scattered Clouds
4:55 AM 36.7 °F 27.2 °F 28.2 °F 71% 29.90 in 10.0 mi WNW 16.1 mph 21.9 mph N/A   Clear
5:15 AM 37.6 °F 28.1 °F 28.9 °F 71% 29.89 in 10.0 mi WNW 17.3 mph 23.0 mph N/A   Mostly Cloudy
5:35 AM 38.1 °F 29.1 °F 28.8 °F 69% 29.90 in 10.0 mi WNW 16.1 mph 21.9 mph N/A   Mostly Cloudy
5:55 AM 37.4 °F 28.5 °F 28.4 °F 70% 29.91 in 10.0 mi WNW 15.0 mph 23.0 mph N/A   Mostly Cloudy
6:15 AM 37.4 °F 28.2 °F 28.4 °F 70% 29.91 in 10.0 mi WNW 16.1 mph - N/A   Mostly Cloudy
6:35 AM 34.7 °F 26.4 °F 27.1 °F 74% 29.92 in 10.0 mi West 11.5 mph - N/A   Overcast
6:55 AM 33.3 °F 25.7 °F 26.2 °F 75% 29.92 in 10.0 mi West 9.2 mph - N/A   Scattered Clouds
7:15 AM 33.4 °F 23.5 °F 26.1 °F 74% 29.92 in 10.0 mi West 15.0 mph 18.4 mph N/A   Clear
7:35 AM 34.0 °F 23.4 °F 26.2 °F 73% 29.94 in 10.0 mi West 17.3 mph - N/A   Mostly Cloudy
7:55 AM 34.7 °F 24.3 °F 26.8 °F 73% 29.94 in 10.0 mi West 17.3 mph 21.9 mph N/A   Overcast
8:15 AM 35.2 °F 24.7 °F 26.1 °F 69% 29.94 in 10.0 mi West 18.4 mph 24.2 mph N/A   Mostly Cloudy
8:35 AM 34.0 °F 24.6 °F 25.7 °F 72% 29.94 in 10.0 mi West 13.8 mph 20.7 mph N/A   Clear
8:55 AM 34.2 °F 25.2 °F 25.7 °F 71% 29.95 in 10.0 mi West 12.7 mph - N/A   Clear
9:15 AM 35.2 °F 26.2 °F 25.7 °F 68% 29.96 in 10.0 mi West 13.8 mph - N/A   Clear
9:35 AM 36.0 °F 26.3 °F 25.7 °F 66% 29.97 in 10.0 mi West 16.1 mph - N/A   Clear
9:55 AM 37.4 °F 27.8 °F 26.2 °F 64% 29.97 in 10.0 mi West 17.3 mph 23.0 mph N/A   Clear
10:15 AM 38.7 °F 29.5 °F 26.4 °F 61% 29.98 in 10.0 mi West 17.3 mph - N/A   Clear
10:35 AM 39.9 °F 31.4 °F 26.8 °F 59% 29.99 in 10.0 mi West 16.1 mph - N/A   Scattered Clouds
10:55 AM 40.1 °F 31.3 °F 27.0 °F 59% 29.99 in 10.0 mi West 17.3 mph - N/A   Mostly Cloudy
11:15 AM 40.1 °F 32.4 °F 27.5 °F 61% 29.99 in 10.0 mi West 13.8 mph - N/A   Mostly Cloudy
11:35 AM 41.5 °F 33.5 °F 28.0 °F 59% 29.99 in 10.0 mi West 16.1 mph - N/A   Scattered Clouds
11:55 AM 42.8 °F 35.1 °F 28.4 °F 57% 29.99 in 10.0 mi West 16.1 mph 21.9 mph N/A   Scattered Clouds
12:15 PM 43.5 °F 35.5 °F 28.0 °F 54% 29.99 in 10.0 mi WNW 18.4 mph - N/A   Scattered Clouds
12:35 PM 44.6 °F 36.4 °F 28.6 °F 53% 29.99 in 10.0 mi WNW 20.7 mph 27.6 mph N/A   Clear
12:55 PM 44.6 °F 36.1 °F 27.9 °F 52% 29.99 in 10.0 mi WNW 21.9 mph 27.6 mph N/A   Clear
1:15 PM 44.8 °F 36.9 °F 28.2 °F 52% 29.99 in 10.0 mi WNW 19.6 mph 26.5 mph N/A   Clear
1:35 PM 46.0 °F 38.8 °F 27.7 °F 49% 29.99 in 10.0 mi WNW 18.4 mph 26.5 mph N/A   Clear
1:55 PM 46.4 °F 39.8 °F 28.4 °F 50% 30.00 in 10.0 mi WNW 16.1 mph 25.3 mph N/A   Clear
2:15 PM 47.7 °F - 27.9 °F 46% 30.00 in 10.0 mi NW 24.2 mph 32.2 mph N/A   Clear
2:35 PM 47.7 °F - 24.4 °F 40% 30.01 in 10.0 mi NNW 26.5 mph 35.7 mph N/A   Clear
2:55 PM 47.3 °F - 24.6 °F 41% 30.01 in 10.0 mi NW 25.3 mph 36.8 mph N/A   Clear
3:15 PM 47.5 °F - 24.6 °F 41% 30.04 in 10.0 mi NW 31.1 mph 38.0 mph N/A   Clear
3:35 PM 47.1 °F - 24.3 °F 41% 30.05 in 10.0 mi NW 24.2 mph 33.4 mph N/A   Clear
3:55 PM 46.4 °F 38.3 °F 24.1 °F 42% 30.07 in 10.0 mi NW 23.0 mph 35.7 mph N/A   Clear
4:15 PM 46.0 °F 37.6 °F 24.6 °F 43% 30.08 in 10.0 mi NW 24.2 mph 28.8 mph N/A   Clear
4:35 PM 45.1 °F 37.9 °F 24.6 °F 45% 30.08 in 10.0 mi NW 17.3 mph 31.1 mph N/A   Clear
4:55 PM 43.3 °F 35.8 °F 25.3 °F 49% 30.10 in 10.0 mi NNW 16.1 mph 21.9 mph N/A   Clear
5:15 PM 41.9 °F 35.4 °F 25.7 °F 53% 30.12 in 10.0 mi NNW 11.5 mph 19.6 mph N/A   Clear
5:35 PM 40.6 °F 33.0 °F 26.2 °F 57% 30.13 in 10.0 mi NNW 13.8 mph 19.6 mph N/A   Clear
5:55 PM 39.4 °F 32.7 °F 26.4 °F 60% 30.13 in 10.0 mi NNW 10.4 mph 17.3 mph N/A   Clear
6:15 PM 38.8 °F 32.1 °F 26.6 °F 61% 30.14 in 10.0 mi NNW 10.4 mph - N/A   Clear
6:35 PM 37.2 °F 31.2 °F 26.6 °F 65% 30.14 in 10.0 mi NNW 8.1 mph - N/A   Clear
6:55 PM 36.7 °F 29.9 °F 26.8 °F 67% 30.15 in 10.0 mi NNW 9.2 mph - N/A   Clear
7:15 PM 35.6 °F 29.9 °F 26.4 °F 69% 30.17 in 10.0 mi WNW 6.9 mph - N/A   Clear
7:35 PM 35.2 °F 28.8 °F 27.0 °F 72% 30.17 in 10.0 mi WNW 8.1 mph - N/A   Clear
7:55 PM 34.2 °F 29.0 °F 27.0 °F 75% 30.17 in 10.0 mi West 5.8 mph - N/A   Clear
8:15 PM 33.1 °F 27.7 °F 26.4 °F 77% 30.18 in 10.0 mi West 5.8 mph - N/A   Clear
8:35 PM 32.9 °F 26.7 °F 26.6 °F 78% 30.19 in 10.0 mi West 6.9 mph - N/A   Clear
8:55 PM 32.0 °F 28.7 °F 26.2 °F 79% 30.20 in 10.0 mi West 3.5 mph - N/A   Clear
9:15 PM 31.5 °F 26.8 °F 25.9 °F 80% 30.20 in 10.0 mi WSW 4.6 mph - N/A   Clear
9:35 PM 31.5 °F 24.9 °F 26.1 °F 80% 30.21 in 10.0 mi WSW 6.9 mph - N/A   Clear
9:55 PM 30.4 °F 25.6 °F 25.5 °F 82% 30.21 in 10.0 mi WSW 4.6 mph - N/A   Clear
10:15 PM 31.5 °F 25.8 °F 26.1 °F 80% 30.21 in 10.0 mi West 5.8 mph - N/A   Clear
10:35 PM 29.7 °F 24.7 °F 25.3 °F 84% 30.21 in 10.0 mi WSW 4.6 mph - N/A   Clear
10:55 PM 30.0 °F 21.7 °F 25.5 °F 83% 30.21 in 10.0 mi WSW 9.2 mph - N/A   Clear
11:15 PM 30.0 °F 23.2 °F 25.5 °F 83% 30.22 in 10.0 mi West 6.9 mph - N/A   Clear
11:35 PM 29.3 °F 24.3 °F 24.6 °F 83% 30.22 in 10.0 mi West 4.6 mph - N/A   Clear
11:55 PM 29.7 °F 23.7 °F 24.8 °F 82% 30.24 in 10.0 mi West 5.8 mph - N/A   Clear